| time (UTC) | temp F | wind direction | speed MPH | gust MPH | rain 1hr in | rain 24hr in | rain mn in | humidity % | barometer mb |
| 20260508122031 | 73 | 234 | 0.0 | 3.0 | 0.00 | 0.00 | 0.00 | 89 | 1012.2 |
| 20260508121528 | 73 | 270 | 1.0 | 2.0 | 0.00 | 0.00 | 0.00 | 89 | 1012.0 |
| 20260508121503 | 72 | 274 | 1.0 | 2.0 | 0.00 | 0.00 | 0.00 | 89 | 1011.9 |
| 20260508121029 | 72 | 287 | 0.0 | 3.0 | 0.00 | 0.00 | 0.00 | 89 | 1012.0 |
| 20260508120529 | 72 | 286 | 0.0 | 3.0 | 0.00 | 0.00 | 0.00 | 90 | 1012.0 |
| 20260508120031 | 71 | 257 | 0.0 | 1.0 | 0.00 | 0.00 | 0.00 | 90 | 1011.9 |
| 20260508120003 | 71 | 257 | 0.0 | 1.0 | 0.00 | 0.00 | 0.00 | 90 | 1011.8 |
| 20260508115819 | 71 | 257 | 0.0 | 1.0 | 0.00 | 0.00 | 0.00 | 91 | 1011.9 |
| 20260508115030 | 70 | 257 | 0.0 | 1.0 | 0.00 | 0.00 | 0.00 | 91 | 1011.9 |
| 20260508114529 | 70 | 256 | 0.0 | 1.0 | 0.00 | 0.00 | 0.00 | 91 | 1011.6 |
| 20260508114503 | 69 | 256 | 0.0 | 1.0 | 0.00 | 0.00 | 0.00 | 91 | 1011.5 |
| 20260508114317 | 69 | 273 | 0.0 | 1.0 | 0.00 | 0.00 | 0.00 | 91 | 1011.6 |
| 20260508113530 | 69 | 273 | 0.0 | 1.0 | 0.00 | 0.00 | 0.00 | 91 | 1011.6 |
| 20260508113057 | 68 | 273 | 0.0 | 1.0 | 0.00 | 0.00 | 0.00 | 91 | 1011.5 |
| 20260508113029 | 69 | 273 | 0.0 | 1.0 | 0.00 | 0.00 | 0.00 | 91 | 1011.5 |
| 20260508112530 | 68 | 237 | 0.0 | 1.0 | 0.00 | 0.00 | 0.00 | 91 | 1011.5 |
| 20260508112029 | 68 | 235 | 0.0 | 0.0 | 0.00 | 0.00 | 0.00 | 91 | 1011.5 |
| 20260508111546 | 67 | 235 | 0.0 | 0.0 | 0.00 | 0.00 | 0.00 | 91 | 1011.4 |
| 20260508111530 | 67 | 235 | 0.0 | 0.0 | 0.00 | 0.00 | 0.00 | 92 | 1011.2 |
| 20260508111029 | 67 | 224 | 0.0 | 0.0 | 0.00 | 0.00 | 0.00 | 91 | 1011.2 |
| 20260508110817 | 67 | 224 | 0.0 | 0.0 | 0.00 | 0.00 | 0.00 | 91 | 1011.2 |
| 20260508110047 | 66 | 225 | 0.0 | 0.0 | 0.00 | 0.00 | 0.00 | 91 | 1010.9 |
| 20260508110031 | 67 | 225 | 0.0 | 0.0 | 0.00 | 0.00 | 0.00 | 91 | 1011.0 |
| 20260508105811 | 67 | 224 | 0.0 | 0.0 | 0.00 | 0.00 | 0.00 | 91 | 1011.0 |
| 20260508105032 | 67 | 225 | 0.0 | 0.0 | 0.00 | 0.00 | 0.00 | 91 | 1011.0 |
| 20260508104535 | 66 | 225 | 0.0 | 0.0 | 0.00 | 0.00 | 0.00 | 90 | 1010.7 |
| 20260508104530 | 66 | 225 | 0.0 | 0.0 | 0.00 | 0.00 | 0.00 | 90 | 1010.8 |
| 20260508104314 | 66 | 225 | 0.0 | 0.0 | 0.00 | 0.00 | 0.00 | 90 | 1010.8 |
| 20260508103530 | 66 | 225 | 0.0 | 0.0 | 0.00 | 0.00 | 0.00 | 90 | 1010.8 |
| 20260508103315 | 67 | 224 | 0.0 | 0.0 | 0.00 | 0.00 | 0.00 | 90 | 1010.5 |
| 20260508102531 | 67 | 225 | 0.0 | 0.0 | 0.00 | 0.00 | 0.00 | 90 | 1010.5 |
| 20260508102031 | 67 | 225 | 0.0 | 0.0 | 0.00 | 0.00 | 0.00 | 90 | 1010.5 |
| 20260508101546 | 66 | 225 | 0.0 | 0.0 | 0.00 | 0.00 | 0.00 | 90 | 1010.2 |
| 20260508101530 | 67 | 225 | 0.0 | 0.0 | 0.00 | 0.00 | 0.00 | 90 | 1010.3 |
| 20260508101317 | 67 | 224 | 0.0 | 0.0 | 0.00 | 0.00 | 0.00 | 90 | 1010.3 |
| 20260508100531 | 67 | 225 | 0.0 | 0.0 | 0.00 | 0.00 | 0.00 | 89 | 1010.3 |
| 20260508100038 | 66 | 225 | 0.0 | 0.0 | 0.00 | 0.00 | 0.00 | 89 | 1010.2 |
| 20260508100030 | 67 | 225 | 0.0 | 0.0 | 0.00 | 0.00 | 0.00 | 89 | 1010.3 |
| 20260508095816 | 67 | 225 | 0.0 | 0.0 | 0.00 | 0.00 | 0.00 | 89 | 1010.3 |
| 20260508095030 | 67 | 224 | 0.0 | 0.0 | 0.00 | 0.00 | 0.00 | 89 | 1010.3 |
| 20260508094615 | 67 | 225 | 0.0 | 0.0 | 0.00 | 0.00 | 0.00 | 89 | 1010.3 |
| 20260508094604 | 67 | 224 | 0.0 | 0.0 | 0.00 | 0.00 | 0.00 | 89 | 1010.3 |
| 20260508094550 | 67 | 224 | 0.0 | 0.0 | 0.00 | 0.00 | 0.00 | 89 | 1010.2 |
| 20260508093530 | 67 | 225 | 0.0 | 0.0 | 0.00 | 0.00 | 0.00 | 89 | 1010.3 |
| 20260508093050 | 67 | 225 | 0.0 | 0.0 | 0.00 | 0.00 | 0.00 | 89 | 1010.0 |
| 20260508093030 | 67 | 225 | 0.0 | 0.0 | 0.00 | 0.00 | 0.00 | 89 | 1010.1 |
| 20260508092531 | 67 | 225 | 0.0 | 0.0 | 0.00 | 0.00 | 0.00 | 89 | 1010.1 |
| 20260508092030 | 67 | 225 | 0.0 | 0.0 | 0.00 | 0.00 | 0.00 | 89 | 1010.1 |
| 20260508091533 | 67 | 225 | 0.0 | 0.0 | 0.00 | 0.00 | 0.00 | 89 | 1010.0 |
| 20260508091030 | 67 | 225 | 0.0 | 0.0 | 0.00 | 0.00 | 0.00 | 88 | 1010.0 |
| 20260508090819 | 67 | 225 | 0.0 | 0.0 | 0.00 | 0.00 | 0.00 | 88 | 1010.0 |
| 20260508090029 | 67 | 224 | 0.0 | 0.0 | 0.00 | 0.00 | 0.00 | 88 | 1010.0 |
| 20260508090025 | 67 | 225 | 0.0 | 0.0 | 0.00 | 0.00 | 0.00 | 88 | 1009.9 |
| 20260508085529 | 67 | 225 | 0.0 | 0.0 | 0.00 | 0.00 | 0.00 | 88 | 1010.0 |
| 20260508085030 | 67 | 225 | 0.0 | 0.0 | 0.00 | 0.00 | 0.00 | 88 | 1010.0 |
| 20260508084530 | 67 | 224 | 0.0 | 0.0 | 0.00 | 0.00 | 0.00 | 88 | 1010.0 |
| 20260508084505 | 67 | 224 | 0.0 | 0.0 | 0.00 | 0.00 | 0.00 | 88 | 1009.9 |
| 20260508084032 | 67 | 225 | 0.0 | 0.0 | 0.00 | 0.00 | 0.00 | 88 | 1010.0 |
| 20260508083530 | 68 | 225 | 0.0 | 0.0 | 0.00 | 0.00 | 0.00 | 88 | 1010.0 |
| 20260508083028 | 68 | 225 | 0.0 | 0.0 | 0.00 | 0.00 | 0.00 | 88 | 1010.0 |
| 20260508083007 | 67 | 225 | 0.0 | 0.0 | 0.00 | 0.00 | 0.00 | 88 | 1009.9 |
| 20260508082528 | 68 | 225 | 0.0 | 0.0 | 0.00 | 0.00 | 0.00 | 88 | 1010.0 |
| 20260508082325 | 68 | 224 | 0.0 | 0.0 | 0.00 | 0.00 | 0.00 | 88 | 1010.0 |
| 20260508081825 | 68 | 224 | 0.0 | 0.0 | 0.00 | 0.00 | 0.00 | 87 | 1010.0 |
| 20260508081505 | 68 | 224 | 0.0 | 0.0 | 0.00 | 0.00 | 0.00 | 87 | 1009.9 |
| 20260508081029 | 68 | 225 | 0.0 | 0.0 | 0.00 | 0.00 | 0.00 | 87 | 1010.0 |
| 20260508080825 | 68 | 225 | 0.0 | 0.0 | 0.00 | 0.00 | 0.00 | 87 | 1010.0 |
| 20260508080030 | 68 | 225 | 0.0 | 0.0 | 0.00 | 0.00 | 0.00 | 87 | 1010.3 |
| 20260508080004 | 68 | 225 | 0.0 | 0.0 | 0.00 | 0.00 | 0.00 | 87 | 1010.2 |
| 20260508075530 | 68 | 225 | 0.0 | 0.0 | 0.00 | 0.00 | 0.00 | 87 | 1010.3 |
| 20260508075029 | 68 | 225 | 0.0 | 0.0 | 0.00 | 0.00 | 0.00 | 87 | 1010.3 |
| 20260508074528 | 68 | 225 | 0.0 | 0.0 | 0.00 | 0.00 | 0.00 | 86 | 1010.2 |
| 20260508074511 | 68 | 225 | 0.0 | 0.0 | 0.00 | 0.00 | 0.00 | 86 | 1010.1 |
| 20260508074029 | 68 | 225 | 0.0 | 0.0 | 0.00 | 0.00 | 0.00 | 86 | 1010.2 |
| 20260508073530 | 68 | 225 | 0.0 | 0.0 | 0.00 | 0.00 | 0.00 | 87 | 1010.2 |
| 20260508073048 | 68 | 224 | 0.0 | 0.0 | 0.00 | 0.00 | 0.00 | 87 | 1010.1 |
| 20260508073028 | 69 | 225 | 0.0 | 0.0 | 0.00 | 0.00 | 0.00 | 87 | 1010.3 |
| 20260508072531 | 69 | 224 | 0.0 | 0.0 | 0.00 | 0.00 | 0.00 | 87 | 1010.3 |
| 20260508072028 | 69 | 225 | 0.0 | 0.0 | 0.00 | 0.00 | 0.00 | 87 | 1010.3 |
| 20260508071537 | 69 | 225 | 0.0 | 0.0 | 0.00 | 0.00 | 0.00 | 87 | 1010.3 |
| 20260508071530 | 69 | 225 | 0.0 | 0.0 | 0.00 | 0.00 | 0.00 | 87 | 1010.4 |
| 20260508071031 | 69 | 225 | 0.0 | 0.0 | 0.00 | 0.00 | 0.00 | 87 | 1010.4 |
| 20260508070530 | 69 | 225 | 0.0 | 0.0 | 0.00 | 0.00 | 0.00 | 87 | 1010.4 |
| 20260508070034 | 69 | 225 | 0.0 | 0.0 | 0.00 | 0.00 | 0.00 | 86 | 1010.4 |
| 20260508070031 | 69 | 225 | 0.0 | 0.0 | 0.00 | 0.00 | 0.00 | 86 | 1010.3 |
| 20260508065824 | 69 | 225 | 0.0 | 0.0 | 0.00 | 0.00 | 0.00 | 86 | 1010.4 |
| 20260508065349 | 69 | 225 | 0.0 | 0.0 | 0.00 | 0.00 | 0.00 | 86 | 1010.4 |
| 20260508064529 | 70 | 225 | 0.0 | 0.0 | 0.00 | 0.00 | 0.00 | 86 | 1010.5 |
| 20260508064510 | 69 | 225 | 0.0 | 0.0 | 0.00 | 0.00 | 0.00 | 86 | 1010.4 |
| 20260508064328 | 70 | 225 | 0.0 | 0.0 | 0.00 | 0.00 | 0.00 | 86 | 1010.5 |
| 20260508063824 | 70 | 225 | 0.0 | 0.0 | 0.00 | 0.00 | 0.00 | 86 | 1010.5 |
| 20260508063030 | 71 | 224 | 0.0 | 0.0 | 0.00 | 0.00 | 0.00 | 86 | 1010.5 |
| 20260508063005 | 70 | 225 | 0.0 | 0.0 | 0.00 | 0.00 | 0.00 | 86 | 1010.4 |
| 20260508062530 | 70 | 224 | 0.0 | 0.0 | 0.00 | 0.00 | 0.00 | 86 | 1010.5 |
| 20260508062324 | 70 | 224 | 0.0 | 0.0 | 0.00 | 0.00 | 0.00 | 84 | 1010.5 |
| 20260508061607 | 70 | 224 | 0.0 | 0.0 | 0.00 | 0.00 | 0.00 | 84 | 1010.4 |
| 20260508061506 | 71 | 225 | 0.0 | 0.0 | 0.00 | 0.00 | 0.00 | 84 | 1010.7 |
| 20260508061005 | 71 | 225 | 0.0 | 0.0 | 0.00 | 0.00 | 0.00 | 84 | 1010.7 |
| 20260508060505 | 71 | 224 | 0.0 | 0.0 | 0.00 | 0.00 | 0.00 | 85 | 1010.7 |
| 20260508060047 | 71 | 224 | 0.0 | 0.0 | 0.00 | 0.00 | 0.00 | 85 | 1010.6 |
| 20260508060005 | 71 | 225 | 0.0 | 0.0 | 0.00 | 0.00 | 0.00 | 85 | 1011.0 |
| 20260508055504 | 71 | 224 | 0.0 | 0.0 | 0.00 | 0.00 | 0.00 | 86 | 1011.0 |
| 20260508055005 | 71 | 224 | 0.0 | 0.0 | 0.00 | 0.00 | 0.00 | 86 | 1011.0 |
| 20260508054532 | 71 | 224 | 0.0 | 0.0 | 0.00 | 0.00 | 0.00 | 86 | 1010.9 |
| 20260508054505 | 71 | 224 | 0.0 | 0.0 | 0.00 | 0.00 | 0.00 | 86 | 1011.0 |
| 20260508054003 | 72 | 224 | 0.0 | 0.0 | 0.00 | 0.00 | 0.00 | 86 | 1011.0 |
| 20260508053502 | 72 | 225 | 0.0 | 1.0 | 0.00 | 0.00 | 0.00 | 86 | 1011.0 |
| 20260508053024 | 71 | 224 | 0.0 | 1.0 | 0.00 | 0.00 | 0.00 | 87 | 1010.8 |
| 20260508053002 | 72 | 225 | 0.0 | 1.0 | 0.00 | 0.00 | 0.00 | 87 | 1011.0 |
| 20260508052502 | 72 | 225 | 0.0 | 1.0 | 0.00 | 0.00 | 0.00 | 87 | 1011.0 |
| 20260508052003 | 72 | 225 | 0.0 | 2.0 | 0.00 | 0.00 | 0.00 | 88 | 1011.0 |
| 20260508051543 | 73 | 209 | 0.0 | 1.0 | 0.00 | 0.00 | 0.00 | 88 | 1011.0 |
| 20260508051534 | 73 | 225 | 0.0 | 2.0 | 0.00 | 0.00 | 0.00 | 88 | 1011.0 |
| 20260508051509 | 72 | 225 | 0.0 | 2.0 | 0.00 | 0.00 | 0.00 | 88 | 1010.9 |
| 20260508050503 | 73 | 209 | 0.0 | 2.0 | 0.00 | 0.00 | 0.00 | 89 | 1011.0 |
| 20260508050009 | 73 | 219 | 0.0 | 2.0 | 0.00 | 0.00 | 0.00 | 89 | 1010.8 |
| 20260508050004 | 74 | 219 | 0.0 | 2.0 | 0.00 | 0.00 | 0.00 | 89 | 1011.0 |
| 20260508045504 | 74 | 219 | 0.0 | 1.0 | 0.00 | 0.00 | 0.00 | 88 | 1011.0 |
| 20260508045001 | 74 | 217 | 0.0 | 1.0 | 0.00 | 0.00 | 0.00 | 88 | 1011.0 |
| 20260508044559 | 74 | 217 | 0.0 | 2.0 | 0.00 | 0.00 | 0.00 | 88 | 1010.8 |
| 20260508044501 | 74 | 217 | 0.0 | 3.0 | 0.00 | 0.00 | 0.00 | 88 | 1010.8 |
| 20260508044256 | 74 | 223 | 0.0 | 3.0 | 0.00 | 0.00 | 0.00 | 88 | 1010.8 |
| 20260508043502 | 75 | 223 | 0.0 | 2.0 | 0.00 | 0.00 | 0.00 | 88 | 1010.8 |
| 20260508043044 | 74 | 219 | 0.0 | 2.0 | 0.00 | 0.00 | 0.00 | 88 | 1010.5 |
| 20260508043003 | 75 | 219 | 0.0 | 2.0 | 0.00 | 0.00 | 0.00 | 88 | 1010.7 |
| 20260508042501 | 75 | 215 | 0.0 | 2.0 | 0.00 | 0.00 | 0.00 | 88 | 1010.7 |
| 20260508042002 | 75 | 227 | 0.0 | 2.0 | 0.00 | 0.00 | 0.00 | 87 | 1010.7 |
| 20260508041552 | 75 | 223 | 0.0 | 2.0 | 0.00 | 0.00 | 0.00 | 87 | 1010.6 |
| 20260508041504 | 76 | 221 | 0.0 | 2.0 | 0.00 | 0.00 | 0.00 | 87 | 1010.7 |
| 20260508041257 | 76 | 229 | 0.0 | 2.0 | 0.00 | 0.00 | 0.00 | 87 | 1010.7 |
| 20260508040506 | 76 | 219 | 0.0 | 2.0 | 0.00 | 0.00 | 0.00 | 87 | 1010.7 |
| 20260508040018 | 75 | 223 | 0.0 | 2.0 | 0.00 | 0.00 | 0.00 | 87 | 1010.7 |
| 20260508040007 | 76 | 223 | 0.0 | 2.0 | 0.00 | 0.00 | 0.00 | 87 | 1010.8 |
| 20260508035504 | 76 | 219 | 0.0 | 2.0 | 0.00 | 0.00 | 0.00 | 87 | 1010.8 |
| 20260508035002 | 76 | 227 | 1.0 | 3.0 | 0.00 | 0.00 | 0.00 | 86 | 1010.8 |
| 20260508034512 | 76 | 223 | 0.0 | 4.0 | 0.00 | 0.00 | 0.00 | 86 | 1010.7 |
| 20260508034502 | 76 | 223 | 1.0 | 4.0 | 0.00 | 0.00 | 0.00 | 86 | 1010.9 |
| 20260508034002 | 76 | 227 | 1.0 | 4.0 | 0.00 | 0.00 | 0.00 | 86 | 1010.9 |
| 20260508033503 | 76 | 208 | 1.0 | 3.0 | 0.00 | 0.00 | 0.00 | 86 | 1010.9 |
| 20260508033016 | 76 | 209 | 0.0 | 4.0 | 0.00 | 0.00 | 0.00 | 86 | 1010.5 |
| 20260508033003 | 77 | 209 | 1.0 | 4.0 | 0.00 | 0.00 | 0.00 | 86 | 1010.6 |
| 20260508032503 | 77 | 209 | 1.0 | 4.0 | 0.00 | 0.00 | 0.00 | 87 | 1010.6 |
| 20260508032003 | 77 | 221 | 1.0 | 3.0 | 0.00 | 0.00 | 0.00 | 87 | 1010.6 |
| 20260508031508 | 76 | 229 | 1.0 | 3.0 | 0.00 | 0.00 | 0.00 | 87 | 1010.4 |
| 20260508031504 | 77 | 229 | 1.0 | 3.0 | 0.00 | 0.00 | 0.00 | 87 | 1010.6 |
| 20260508031004 | 77 | 217 | 0.0 | 2.0 | 0.00 | 0.00 | 0.00 | 86 | 1010.6 |
| 20260508030503 | 77 | 213 | 0.0 | 3.0 | 0.00 | 0.00 | 0.00 | 86 | 1010.6 |
| 20260508030006 | 77 | 222 | 0.0 | 3.0 | 0.00 | 0.00 | 0.00 | 86 | 1010.4 |
| 20260508030002 | 77 | 222 | 1.0 | 3.0 | 0.00 | 0.00 | 0.00 | 86 | 1010.5 |
| 20260508025503 | 78 | 227 | 1.0 | 3.0 | 0.00 | 0.00 | 0.00 | 86 | 1010.5 |
| 20260508025004 | 78 | 209 | 1.0 | 3.0 | 0.00 | 0.00 | 0.00 | 86 | 1010.5 |
| 20260508024508 | 77 | 222 | 0.0 | 3.0 | 0.00 | 0.00 | 0.00 | 86 | 1010.4 |
| 20260508024502 | 78 | 222 | 0.0 | 3.0 | 0.00 | 0.00 | 0.00 | 86 | 1010.5 |
| 20260508024003 | 78 | 185 | 0.0 | 2.0 | 0.00 | 0.00 | 0.00 | 86 | 1010.5 |
| 20260508023502 | 78 | 204 | 0.0 | 2.0 | 0.00 | 0.00 | 0.00 | 86 | 1010.5 |
| 20260508023016 | 78 | 207 | 0.0 | 2.0 | 0.00 | 0.00 | 0.00 | 85 | 1010.4 |
| 20260508023003 | 78 | 207 | 0.0 | 2.0 | 0.00 | 0.00 | 0.00 | 85 | 1010.5 |
| 20260508022503 | 79 | 194 | 1.0 | 4.0 | 0.00 | 0.00 | 0.00 | 85 | 1010.5 |
| 20260508022005 | 79 | 219 | 1.0 | 4.0 | 0.00 | 0.00 | 0.00 | 85 | 1010.5 |
| 20260508021507 | 79 | 222 | 0.0 | 3.0 | 0.00 | 0.00 | 0.00 | 85 | 1010.1 |
| 20260508021502 | 79 | 222 | 1.0 | 3.0 | 0.00 | 0.00 | 0.00 | 85 | 1010.2 |
| 20260508021004 | 79 | 212 | 1.0 | 3.0 | 0.00 | 0.00 | 0.00 | 84 | 1010.2 |
| 20260508020502 | 79 | 217 | 0.0 | 3.0 | 0.00 | 0.00 | 0.00 | 84 | 1010.2 |
| 20260508020007 | 79 | 202 | 0.0 | 2.0 | 0.00 | 0.00 | 0.00 | 84 | 1009.9 |
| 20260508020002 | 79 | 202 | 0.0 | 2.0 | 0.00 | 0.00 | 0.00 | 84 | 1010.0 |
| 20260508015503 | 80 | 134 | 0.0 | 4.0 | 0.00 | 0.00 | 0.00 | 84 | 1010.0 |
| 20260508015004 | 80 | 171 | 1.0 | 4.0 | 0.00 | 0.00 | 0.00 | 84 | 1010.0 |
| 20260508014507 | 80 | 142 | 1.0 | 4.0 | 0.00 | 0.00 | 0.00 | 84 | 1009.9 |
| 20260508014502 | 80 | 142 | 2.0 | 7.0 | 0.00 | 0.00 | 0.00 | 84 | 1010.0 |
| 20260508014003 | 80 | 130 | 2.0 | 7.0 | 0.00 | 0.00 | 0.00 | 84 | 1010.0 |
| 20260508013505 | 80 | 107 | 2.0 | 7.0 | 0.00 | 0.00 | 0.00 | 84 | 1010.0 |
| 20260508013006 | 80 | 123 | 2.0 | 7.0 | 0.00 | 0.00 | 0.00 | 84 | 1009.8 |
| 20260508013002 | 80 | 123 | 2.0 | 7.0 | 0.00 | 0.00 | 0.00 | 84 | 1009.9 |
| 20260508012503 | 80 | 127 | 2.0 | 7.0 | 0.00 | 0.00 | 0.00 | 85 | 1009.9 |
| 20260508012003 | 80 | 126 | 3.0 | 7.0 | 0.00 | 0.00 | 0.00 | 85 | 1009.9 |
| 20260508011508 | 80 | 150 | 3.0 | 7.0 | 0.00 | 0.00 | 0.00 | 85 | 1009.8 |
| 20260508011502 | 80 | 150 | 3.0 | 7.0 | 0.00 | 0.00 | 0.00 | 85 | 1009.9 |
| 20260508011005 | 80 | 128 | 2.0 | 6.0 | 0.00 | 0.00 | 0.00 | 85 | 1009.9 |
| 20260508010504 | 81 | 146 | 3.0 | 9.0 | 0.00 | 0.00 | 0.00 | 85 | 1009.9 |
| 20260508010012 | 80 | 136 | 2.0 | 9.0 | 0.00 | 0.00 | 0.00 | 85 | 1009.6 |
| 20260508010003 | 81 | 136 | 3.0 | 9.0 | 0.00 | 0.00 | 0.00 | 85 | 1009.7 |
| 20260508005503 | 81 | 121 | 3.0 | 9.0 | 0.00 | 0.00 | 0.00 | 85 | 1009.7 |
| 20260508005259 | 81 | 123 | 3.0 | 7.0 | 0.00 | 0.00 | 0.00 | 85 | 1009.7 |
| 20260508004756 | 81 | 126 | 3.0 | 7.0 | 0.00 | 0.00 | 0.00 | 84 | 1009.7 |
| 20260508004104 | 81 | 119 | 4.0 | 7.0 | 0.00 | 0.00 | 0.00 | 84 | 1009.7 |
| 20260508004045 | 81 | 133 | 3.0 | 7.0 | 0.00 | 0.00 | 0.00 | 84 | 1009.7 |
| 20260508003257 | 81 | 142 | 4.0 | 7.0 | 0.00 | 0.00 | 0.00 | 83 | 1009.8 |
| 20260508002503 | 81 | 96 | 4.0 | 8.0 | 0.00 | 0.00 | 0.00 | 83 | 1009.8 |
| 20260508002000 | 81 | 121 | 4.0 | 8.0 | 0.00 | 0.00 | 0.00 | 83 | 1009.8 |
| 20260508001508 | 81 | 110 | 2.0 | 11.0 | 0.00 | 0.00 | 0.00 | 83 | 1009.7 |
| 20260508001501 | 81 | 111 | 3.0 | 11.0 | 0.00 | 0.00 | 0.00 | 83 | 1009.8 |
| 20260508001000 | 81 | 148 | 4.0 | 11.0 | 0.00 | 0.00 | 0.00 | 83 | 1009.8 |
| 20260508000502 | 82 | 126 | 5.0 | 12.0 | 0.00 | 0.00 | 0.00 | 82 | 1009.8 |
| 20260508000010 | 81 | 128 | 7.0 | 12.0 | 0.00 | 0.00 | 0.00 | 82 | 1009.5 |
| 20260508000001 | 82 | 125 | 5.0 | 12.0 | 0.00 | 0.00 | 0.00 | 82 | 1009.6 |
| 20260507235755 | 82 | 126 | 5.0 | 9.0 | 0.00 | 0.00 | 0.00 | 83 | 1009.6 |
| 20260507235003 | 82 | 153 | 6.0 | 9.0 | 0.00 | 0.00 | 0.00 | 82 | 1009.6 |
| 20260507234757 | 82 | 116 | 7.0 | 16.0 | 0.00 | 0.00 | 0.00 | 83 | 1009.7 |
| 20260507234003 | 82 | 144 | 7.0 | 16.0 | 0.00 | 0.00 | 0.00 | 82 | 1009.7 |
| 20260507233502 | 82 | 112 | 6.0 | 10.0 | 0.00 | 0.00 | 0.00 | 83 | 1009.7 |
| 20260507233008 | 82 | 115 | 4.0 | 10.0 | 0.00 | 0.00 | 0.00 | 82 | 1009.4 |
| 20260507233002 | 83 | 115 | 5.0 | 10.0 | 0.00 | 0.00 | 0.00 | 82 | 1009.5 |
| 20260507232502 | 83 | 115 | 5.0 | 10.0 | 0.00 | 0.00 | 0.00 | 82 | 1009.5 |
| 20260507232253 | 83 | 136 | 6.0 | 10.0 | 0.00 | 0.00 | 0.00 | 82 | 1009.5 |
| 20260507231509 | 82 | 121 | 6.0 | 10.0 | 0.00 | 0.00 | 0.00 | 82 | 1009.4 |
| 20260507231504 | 83 | 126 | 7.0 | 11.0 | 0.00 | 0.00 | 0.00 | 82 | 1009.5 |
| 20260507231307 | 83 | 121 | 8.0 | 11.0 | 0.00 | 0.00 | 0.00 | 81 | 1009.5 |
| 20260507230811 | 83 | 129 | 7.0 | 11.0 | 0.00 | 0.00 | 0.00 | 81 | 1009.5 |
| 20260507230009 | 83 | 121 | 6.0 | 11.0 | 0.00 | 0.00 | 0.00 | 80 | 1009.3 |
| 20260507230005 | 84 | 121 | 7.0 | 11.0 | 0.00 | 0.00 | 0.00 | 80 | 1009.4 |
| 20260507225502 | 84 | 111 | 8.0 | 13.0 | 0.00 | 0.00 | 0.00 | 80 | 1009.4 |
| 20260507225004 | 84 | 111 | 9.0 | 14.0 | 0.00 | 0.00 | 0.00 | 79 | 1009.4 |
| 20260507224757 | 84 | 80 | 8.0 | 15.0 | 0.00 | 0.00 | 0.00 | 79 | 1009.4 |
| 20260507224256 | 84 | 101 | 9.0 | 15.0 | 0.00 | 0.00 | 0.00 | 79 | 1009.4 |
| 20260507223503 | 84 | 114 | 8.0 | 14.0 | 0.00 | 0.00 | 0.00 | 78 | 1009.4 |
| 20260507223259 | 85 | 114 | 7.0 | 13.0 | 0.00 | 0.00 | 0.00 | 79 | 1009.4 |
| 20260507222503 | 85 | 88 | 7.0 | 13.0 | 0.00 | 0.00 | 0.00 | 79 | 1009.4 |
| 20260507222004 | 85 | 132 | 7.0 | 13.0 | 0.00 | 0.00 | 0.00 | 78 | 1009.4 |
| 20260507221513 | 84 | 128 | 5.0 | 11.0 | 0.00 | 0.00 | 0.00 | 78 | 1009.3 |
| 20260507221505 | 85 | 113 | 7.0 | 11.0 | 0.00 | 0.00 | 0.00 | 78 | 1009.4 |
| 20260507221004 | 85 | 124 | 8.0 | 13.0 | 0.00 | 0.00 | 0.00 | 79 | 1009.4 |
| 20260507220757 | 85 | 123 | 8.0 | 13.0 | 0.00 | 0.00 | 0.00 | 77 | 1009.4 |
| 20260507220004 | 85 | 92 | 8.0 | 12.0 | 0.00 | 0.00 | 0.00 | 76 | 1009.4 |
| 20260507215955 | 85 | 102 | 8.0 | 12.0 | 0.00 | 0.00 | 0.00 | 76 | 1009.5 |
| 20260507215439 | 85 | 121 | 8.0 | 14.0 | 0.00 | 0.00 | 0.00 | 78 | 1009.5 |
| 20260507214936 | 85 | 103 | 9.0 | 14.0 | 0.00 | 0.00 | 0.00 | 78 | 1009.5 |
| 20260507214604 | 85 | 115 | 8.0 | 14.0 | 0.00 | 0.00 | 0.00 | 78 | 1009.4 |
| 20260507214436 | 85 | 119 | 9.0 | 14.0 | 0.00 | 0.00 | 0.00 | 78 | 1009.4 |
| 20260507213935 | 85 | 90 | 9.0 | 14.0 | 0.00 | 0.00 | 0.00 | 78 | 1009.4 |
| 20260507213432 | 85 | 119 | 8.0 | 15.0 | 0.00 | 0.00 | 0.00 | 77 | 1009.4 |
| 20260507213052 | 85 | 96 | 8.0 | 15.0 | 0.00 | 0.00 | 0.00 | 76 | 1009.3 |
| 20260507213027 | 85 | 127 | 7.0 | 15.0 | 0.00 | 0.00 | 0.00 | 77 | 1009.4 |
| 20260507213025 | 86 | 64 | 8.0 | 13.0 | 0.00 | 0.00 | 0.00 | 76 | 1009.5 |
| 20260507213006 | 86 | 132 | 8.0 | 15.0 | 0.00 | 0.00 | 0.00 | 76 | 1009.5 |
| 20260507211932 | 85 | 103 | 8.0 | 14.0 | 0.00 | 0.00 | 0.00 | 76 | 1009.5 |
| 20260507211551 | 85 | 117 | 7.0 | 12.0 | 0.00 | 0.00 | 0.00 | 76 | 1009.7 |
| 20260507211430 | 85 | 113 | 8.0 | 14.0 | 0.00 | 0.00 | 0.00 | 76 | 1009.8 |
| 20260507210930 | 86 | 107 | 8.0 | 14.0 | 0.00 | 0.00 | 0.00 | 76 | 1009.8 |
| 20260507210433 | 85 | 81 | 8.0 | 15.0 | 0.00 | 0.00 | 0.00 | 77 | 1009.8 |
| 20260507210223 | 86 | 111 | 8.0 | 15.0 | 0.00 | 0.00 | 0.00 | 76 | 1009.9 |
| 20260507210145 | 85 | 96 | 9.0 | 14.0 | 0.00 | 0.00 | 0.00 | 76 | 1009.7 |
| 20260507205431 | 86 | 80 | 8.0 | 14.0 | 0.00 | 0.00 | 0.00 | 76 | 1009.9 |
| 20260507204931 | 86 | 102 | 9.0 | 14.0 | 0.00 | 0.00 | 0.00 | 77 | 1009.9 |
| 20260507204530 | 85 | 100 | 8.0 | 14.0 | 0.00 | 0.00 | 0.00 | 77 | 1009.8 |
| 20260507204426 | 86 | 129 | 9.0 | 13.0 | 0.00 | 0.00 | 0.00 | 77 | 1009.9 |
| 20260507203926 | 86 | 126 | 8.0 | 12.0 | 0.00 | 0.00 | 0.00 | 76 | 1009.9 |
| 20260507203425 | 85 | 91 | 8.0 | 15.0 | 0.00 | 0.00 | 0.00 | 77 | 1009.9 |
| 20260507203029 | 85 | 77 | 7.0 | 14.0 | 0.00 | 0.00 | 0.00 | 77 | 1009.8 |
| 20260507202922 | 85 | 65 | 9.0 | 15.0 | 0.00 | 0.00 | 0.00 | 77 | 1009.9 |
| 20260507202719 | 85 | 84 | 8.0 | 16.0 | 0.00 | 0.00 | 0.00 | 77 | 1009.9 |
| 20260507201922 | 85 | 113 | 8.0 | 16.0 | 0.00 | 0.00 | 0.00 | 76 | 1009.9 |
| 20260507201713 | 86 | 102 | 9.0 | 16.0 | 0.00 | 0.00 | 0.00 | 76 | 1009.9 |
| 20260507201648 | 85 | 87 | 8.0 | 16.0 | 0.00 | 0.00 | 0.00 | 76 | 1009.8 |
| 20260507200922 | 86 | 88 | 9.0 | 16.0 | 0.00 | 0.00 | 0.00 | 75 | 1009.9 |
| 20260507200422 | 86 | 72 | 9.0 | 17.0 | 0.00 | 0.00 | 0.00 | 74 | 1009.9 |
| 20260507200015 | 86 | 83 | 9.0 | 17.0 | 0.00 | 0.00 | 0.00 | 72 | 1010.1 |
| 20260507195921 | 87 | 123 | 9.0 | 17.0 | 0.00 | 0.00 | 0.00 | 73 | 1010.2 |
| 20260507195421 | 87 | 81 | 7.0 | 14.0 | 0.00 | 0.00 | 0.00 | 75 | 1010.2 |
| 20260507194921 | 86 | 120 | 6.0 | 11.0 | 0.00 | 0.00 | 0.00 | 73 | 1010.2 |
| 20260507194504 | 86 | 73 | 6.0 | 9.0 | 0.00 | 0.00 | 0.00 | 75 | 1010.3 |
| 20260507194419 | 87 | 83 | 4.0 | 9.0 | 0.00 | 0.00 | 0.00 | 73 | 1010.4 |
| 20260507193919 | 87 | 80 | 5.0 | 10.0 | 0.00 | 0.00 | 0.00 | 74 | 1010.4 |
| 20260507193409 | 86 | 38 | 7.0 | 13.0 | 0.00 | 0.00 | 0.00 | 72 | 1010.4 |
| 20260507193115 | 86 | 82 | 8.0 | 12.0 | 0.00 | 0.00 | 0.00 | 72 | 1010.3 |
| 20260507192907 | 87 | 86 | 5.0 | 13.0 | 0.00 | 0.00 | 0.00 | 70 | 1010.5 |
| 20260507192708 | 89 | 86 | 4.0 | 11.0 | 0.00 | 0.00 | 0.00 | 70 | 1010.5 |
| 20260507191908 | 89 | 93 | 4.0 | 11.0 | 0.00 | 0.00 | 0.00 | 66 | 1010.5 |
| 20260507191550 | 90 | 87 | 7.0 | 11.0 | 0.00 | 0.00 | 0.00 | 64 | 1010.7 |
| 20260507191407 | 92 | 113 | 2.0 | 11.0 | 0.00 | 0.00 | 0.00 | 63 | 1010.9 |
| 20260507191256 | 94 | 339 | 2.0 | 9.0 | 0.00 | 0.00 | 0.00 | 54 | 1010.9 |
| 20260507190941 | 93 | 238 | 1.0 | 9.0 | 0.00 | 0.00 | 0.00 | 54 | 1010.9 |
| 20260507190033 | 94 | 249 | 2.0 | 5.0 | 0.00 | 0.00 | 0.00 | 52 | 1010.9 |
| 20260507185909 | 94 | 217 | 1.0 | 5.0 | 0.00 | 0.00 | 0.00 | 54 | 1011.0 |
| 20260507185406 | 94 | 279 | 1.0 | 3.0 | 0.00 | 0.00 | 0.00 | 56 | 1011.0 |
| 20260507184908 | 94 | 128 | 1.0 | 4.0 | 0.00 | 0.00 | 0.00 | 57 | 1011.0 |
| 20260507184506 | 93 | 222 | 0.0 | 4.0 | 0.00 | 0.00 | 0.00 | 56 | 1011.2 |
| 20260507184405 | 94 | 256 | 1.0 | 7.0 | 0.00 | 0.00 | 0.00 | 57 | 1011.3 |
| 20260507183904 | 94 | 261 | 2.0 | 7.0 | 0.00 | 0.00 | 0.00 | 56 | 1011.3 |
| 20260507183404 | 94 | 235 | 2.0 | 7.0 | 0.00 | 0.00 | 0.00 | 56 | 1011.3 |
| 20260507183006 | 93 | 222 | 1.0 | 6.0 | 0.00 | 0.00 | 0.00 | 56 | 1011.4 |
| 20260507182905 | 94 | 211 | 1.0 | 6.0 | 0.00 | 0.00 | 0.00 | 57 | 1011.5 |
| 20260507182403 | 93 | 299 | 1.0 | 4.0 | 0.00 | 0.00 | 0.00 | 59 | 1011.5 |
| 20260507181900 | 93 | 300 | 1.0 | 9.0 | 0.00 | 0.00 | 0.00 | 59 | 1011.5 |
| 20260507181646 | 92 | 215 | 2.0 | 9.0 | 0.00 | 0.00 | 0.00 | 59 | 1011.5 |
| 20260507181625 | 92 | 143 | 0.0 | 9.0 | 0.00 | 0.00 | 0.00 | 58 | 1011.4 |
| 20260507180902 | 92 | 224 | 2.0 | 7.0 | 0.00 | 0.00 | 0.00 | 57 | 1011.5 |
| 20260507180402 | 93 | 279 | 1.0 | 7.0 | 0.00 | 0.00 | 0.00 | 58 | 1011.5 |
| 20260507180032 | 92 | 240 | 0.0 | 7.0 | 0.00 | 0.00 | 0.00 | 58 | 1011.5 |
| 20260507175902 | 93 | 131 | 2.0 | 7.0 | 0.00 | 0.00 | 0.00 | 59 | 1011.6 |
| 20260507175402 | 94 | 213 | 2.0 | 7.0 | 0.00 | 0.00 | 0.00 | 57 | 1011.6 |
| 20260507175152 | 93 | 201 | 2.0 | 7.0 | 0.00 | 0.00 | 0.00 | 60 | 1011.6 |
| 20260507174509 | 93 | 126 | 2.0 | 7.0 | 0.00 | 0.00 | 0.00 | 60 | 1011.7 |
| 20260507174402 | 93 | 121 | 2.0 | 7.0 | 0.00 | 0.00 | 0.00 | 59 | 1011.8 |
| 20260507173945 | 92 | 243 | 2.0 | 6.0 | 0.00 | 0.00 | 0.00 | 60 | 1011.8 |
| 20260507173933 | 93 | 191 | 1.0 | 4.0 | 0.00 | 0.00 | 0.00 | 59 | 1011.8 |
| 20260507173013 | 92 | 306 | 2.0 | 7.0 | 0.00 | 0.00 | 0.00 | 59 | 1011.6 |
| 20260507172902 | 93 | 273 | 2.0 | 7.0 | 0.00 | 0.00 | 0.00 | 59 | 1011.7 |
| 20260507172401 | 92 | 209 | 2.0 | 7.0 | 0.00 | 0.00 | 0.00 | 59 | 1011.7 |
| 20260507171944 | 92 | 292 | 2.0 | 6.0 | 0.00 | 0.00 | 0.00 | 61 | 1011.9 |
| 20260507171934 | 92 | 261 | 2.0 | 6.0 | 0.00 | 0.00 | 0.00 | 59 | 1011.7 |
| 20260507171614 | 92 | 228 | 1.0 | 5.0 | 0.00 | 0.00 | 0.00 | 60 | 1011.6 |
| 20260507170904 | 92 | 312 | 3.0 | 7.0 | 0.00 | 0.00 | 0.00 | 60 | 1011.9 |
| 20260507170402 | 93 | 265 | 2.0 | 7.0 | 0.00 | 0.00 | 0.00 | 58 | 1011.9 |
| 20260507170005 | 92 | 217 | 2.0 | 9.0 | 0.00 | 0.00 | 0.00 | 60 | 1011.9 |
| 20260507165904 | 93 | 242 | 2.0 | 10.0 | 0.00 | 0.00 | 0.00 | 60 | 1012.0 |
| 20260507165403 | 92 | 205 | 2.0 | 10.0 | 0.00 | 0.00 | 0.00 | 59 | 1012.0 |
| 20260507164903 | 91 | 284 | 2.0 | 6.0 | 0.00 | 0.00 | 0.00 | 61 | 1012.0 |
| 20260507164503 | 91 | 140 | 0.0 | 7.0 | 0.00 | 0.00 | 0.00 | 60 | 1012.3 |
| 20260507164402 | 91 | 245 | 2.0 | 7.0 | 0.00 | 0.00 | 0.00 | 62 | 1012.5 |
| 20260507164151 | 91 | 157 | 2.0 | 7.0 | 0.00 | 0.00 | 0.00 | 62 | 1012.5 |
| 20260507163648 | 92 | 223 | 2.0 | 8.0 | 0.00 | 0.00 | 0.00 | 60 | 1012.5 |
| 20260507163005 | 92 | 230 | 3.0 | 8.0 | 0.00 | 0.00 | 0.00 | 60 | 1012.4 |
| 20260507162904 | 92 | 249 | 3.0 | 8.0 | 0.00 | 0.00 | 0.00 | 61 | 1012.6 |
| 20260507162402 | 92 | 278 | 3.0 | 8.0 | 0.00 | 0.00 | 0.00 | 61 | 1012.6 |
| 20260507161901 | 92 | 206 | 3.0 | 8.0 | 0.00 | 0.00 | 0.00 | 62 | 1012.6 |
| 20260507161502 | 91 | 220 | 3.0 | 6.0 | 0.00 | 0.00 | 0.00 | 62 | 1012.4 |
| 20260507161449 | 91 | 222 | 2.0 | 5.0 | 0.00 | 0.00 | 0.00 | 62 | 1012.6 |
| 20260507161437 | 92 | 221 | 2.0 | 6.0 | 0.00 | 0.00 | 0.00 | 62 | 1012.6 |
| 20260507160403 | 91 | 241 | 1.0 | 5.0 | 0.00 | 0.00 | 0.00 | 65 | 1012.6 |
| 20260507160008 | 90 | 204 | 1.0 | 6.0 | 0.00 | 0.00 | 0.00 | 65 | 1012.5 |
| 20260507155904 | 91 | 220 | 2.0 | 7.0 | 0.00 | 0.00 | 0.00 | 66 | 1012.6 |
| 20260507155647 | 90 | 219 | 2.0 | 7.0 | 0.00 | 0.00 | 0.00 | 66 | 1012.6 |
| 20260507154902 | 90 | 186 | 1.0 | 5.0 | 0.00 | 0.00 | 0.00 | 66 | 1012.6 |
| 20260507154505 | 89 | 263 | 1.0 | 5.0 | 0.00 | 0.00 | 0.00 | 67 | 1012.8 |
| 20260507154402 | 90 | 115 | 1.0 | 5.0 | 0.00 | 0.00 | 0.00 | 66 | 1013.0 |
| 20260507153904 | 89 | 221 | 2.0 | 6.0 | 0.00 | 0.00 | 0.00 | 67 | 1013.0 |
| 20260507153405 | 89 | 156 | 2.0 | 6.0 | 0.00 | 0.00 | 0.00 | 68 | 1013.0 |
| 20260507153011 | 89 | 119 | 1.0 | 5.0 | 0.00 | 0.00 | 0.00 | 68 | 1012.9 |
| 20260507152904 | 89 | 242 | 1.0 | 5.0 | 0.00 | 0.00 | 0.00 | 68 | 1013.1 |
| 20260507152350 | 89 | 227 | 1.0 | 7.0 | 0.00 | 0.00 | 0.00 | 67 | 1013.1 |
| 20260507151846 | 88 | 227 | 2.0 | 7.0 | 0.00 | 0.00 | 0.00 | 68 | 1013.1 |
| 20260507151505 | 87 | 213 | 1.0 | 7.0 | 0.00 | 0.00 | 0.00 | 70 | 1012.9 |
| 20260507151331 | 87 | 240 | 2.0 | 7.0 | 0.00 | 0.00 | 0.00 | 68 | 1013.1 |
| 20260507150831 | 87 | 246 | 3.0 | 7.0 | 0.00 | 0.00 | 0.00 | 69 | 1013.1 |
| 20260507150329 | 87 | 229 | 2.0 | 6.0 | 0.00 | 0.00 | 0.00 | 70 | 1013.1 |
| 20260507150004 | 86 | 236 | 3.0 | 6.0 | 0.00 | 0.00 | 0.00 | 70 | 1012.9 |
| 20260507145829 | 86 | 219 | 3.0 | 10.0 | 0.00 | 0.00 | 0.00 | 71 | 1013.1 |
| 20260507145332 | 85 | 220 | 3.0 | 10.0 | 0.00 | 0.00 | 0.00 | 71 | 1013.1 |
| 20260507144829 | 86 | 221 | 3.0 | 8.0 | 0.00 | 0.00 | 0.00 | 71 | 1013.1 |
| 20260507144557 | 85 | 239 | 2.0 | 8.0 | 0.00 | 0.00 | 0.00 | 71 | 1013.0 |
| 20260507144329 | 86 | 222 | 3.0 | 8.0 | 0.00 | 0.00 | 0.00 | 70 | 1013.1 |
| 20260507143830 | 86 | 200 | 2.0 | 8.0 | 0.00 | 0.00 | 0.00 | 71 | 1013.1 |
| 20260507143615 | 85 | 269 | 2.0 | 8.0 | 0.00 | 0.00 | 0.00 | 72 | 1013.1 |
| 20260507143044 | 84 | 225 | 2.0 | 8.0 | 0.00 | 0.00 | 0.00 | 72 | 1013.0 |
| 20260507142829 | 84 | 214 | 3.0 | 9.0 | 0.00 | 0.00 | 0.00 | 72 | 1013.1 |
| 20260507142602 | 84 | 223 | 3.0 | 9.0 | 0.00 | 0.00 | 0.00 | 73 | 1013.1 |
| 20260507141830 | 84 | 226 | 2.0 | 7.0 | 0.00 | 0.00 | 0.00 | 71 | 1013.1 |
| 20260507141532 | 83 | 255 | 1.0 | 7.0 | 0.00 | 0.00 | 0.00 | 73 | 1013.1 |
| 20260507141333 | 83 | 222 | 2.0 | 7.0 | 0.00 | 0.00 | 0.00 | 73 | 1013.2 |
| 20260507140830 | 83 | 209 | 3.0 | 7.0 | 0.00 | 0.00 | 0.00 | 73 | 1013.2 |
| 20260507140329 | 83 | 153 | 2.0 | 5.0 | 0.00 | 0.00 | 0.00 | 75 | 1013.2 |
| 20260507140022 | 82 | 214 | 1.0 | 5.0 | 0.00 | 0.00 | 0.00 | 74 | 1013.0 |
| 20260507135830 | 82 | 213 | 2.0 | 6.0 | 0.00 | 0.00 | 0.00 | 74 | 1013.2 |
| 20260507135329 | 82 | 142 | 3.0 | 8.0 | 0.00 | 0.00 | 0.00 | 75 | 1013.2 |
| 20260507134829 | 81 | 114 | 3.0 | 8.0 | 0.00 | 0.00 | 0.00 | 74 | 1013.2 |
| 20260507134503 | 81 | 208 | 2.0 | 7.0 | 0.00 | 0.00 | 0.00 | 76 | 1013.0 |
| 20260507134329 | 81 | 228 | 2.0 | 7.0 | 0.00 | 0.00 | 0.00 | 77 | 1013.2 |
| 20260507133829 | 81 | 213 | 2.0 | 7.0 | 0.00 | 0.00 | 0.00 | 76 | 1013.2 |
| 20260507133330 | 80 | 163 | 2.0 | 7.0 | 0.00 | 0.00 | 0.00 | 78 | 1013.2 |
| 20260507133111 | 80 | 117 | 1.0 | 7.0 | 0.00 | 0.00 | 0.00 | 77 | 1013.0 |
| 20260507132829 | 80 | 252 | 2.0 | 7.0 | 0.00 | 0.00 | 0.00 | 78 | 1013.2 |
| 20260507132330 | 79 | 234 | 2.0 | 7.0 | 0.00 | 0.00 | 0.00 | 78 | 1013.2 |
| 20260507131829 | 79 | 215 | 1.0 | 4.0 | 0.00 | 0.00 | 0.00 | 81 | 1013.2 |
| 20260507131547 | 78 | 226 | 1.0 | 4.0 | 0.00 | 0.00 | 0.00 | 82 | 1013.1 |
| 20260507131331 | 79 | 200 | 1.0 | 6.0 | 0.00 | 0.00 | 0.00 | 83 | 1013.1 |
| 20260507130829 | 78 | 223 | 1.0 | 6.0 | 0.00 | 0.00 | 0.00 | 84 | 1013.1 |
| 20260507130329 | 78 | 220 | 1.0 | 5.0 | 0.00 | 0.00 | 0.00 | 85 | 1013.1 |
| 20260507130122 | 77 | 157 | 0.0 | 3.0 | 0.00 | 0.00 | 0.00 | 85 | 1013.2 |
| 20260507130045 | 77 | 205 | 0.0 | 3.0 | 0.00 | 0.00 | 0.00 | 85 | 1013.1 |
| 20260507125329 | 77 | 208 | 1.0 | 3.0 | 0.00 | 0.00 | 0.00 | 86 | 1013.2 |
| 20260507124829 | 76 | 200 | 1.0 | 3.0 | 0.00 | 0.00 | 0.00 | 86 | 1013.2 |
| 20260507124623 | 76 | 154 | 1.0 | 3.0 | 0.00 | 0.00 | 0.00 | 87 | 1013.1 |
| 20260507124544 | 76 | 215 | 1.0 | 3.0 | 0.00 | 0.00 | 0.00 | 86 | 1013.0 |
| 20260507123829 | 76 | 240 | 1.0 | 3.0 | 0.00 | 0.00 | 0.00 | 87 | 1013.1 |
| 20260507123330 | 75 | 215 | 1.0 | 5.0 | 0.00 | 0.00 | 0.00 | 87 | 1013.1 |
| 20260507123012 | 75 | 216 | 1.0 | 5.0 | 0.00 | 0.00 | 0.00 | 88 | 1013.0 |
| 20260507122829 | 75 | 219 | 1.0 | 5.0 | 0.00 | 0.00 | 0.00 | 88 | 1013.1 |
| 20260507122330 | 75 | 236 | 1.0 | 3.0 | 0.00 | 0.00 | 0.00 | 88 | 1013.1 |